Back to catalog

SL-6 R/B(2)

AliveHEO
NORAD 10089·ROCKET BODY·🇷🇺 Russia

Launched Jun 16, 1977 from Plesetsk Cosmodrome

Loading…

Next Passes (next 24 hours)

TLE

FreshSource: Space-Track

Epoch: Sep 14, 2026, 02:46 UTC

1 10089U 77047D   26257.11530633  .00000428  00000-0  00000-0 0  9991
2 10089  66.9953  90.7706 5702577 300.1795  15.4734  1.99305914262224

Track SL-6 R/B(2) in real time with AllMySat

Download on the App Store